Simultaneous Nadir Overpasses (SNOs) Predictions

Prediction of SNOs between AQUA and GOES-15 Satellite Orbit:

Table of predicted SNOs for the next 14.0 days since TLE Epoch: 6/20/2025
Index Date Time (AQUA) AQUA Lat,Lon GOES-15 Lat,Lon Distance(km) Time Diff (sec)
1 06/21/2025 10:34:58 0.46, 62.15 0.26, 61.26 102.26 80
2 06/21/2025 22:54:06 0.54, 57.53 -0.27, 61.31 430.12 80
3 06/23/2025 22:33:47 -0.53, 62.50 -0.27, 61.31 136.13 80
4 06/24/2025 10:53:05 -0.47, 57.84 0.29, 61.26 389.36 80
5 06/26/2025 10:32:46 0.63, 62.81 0.29, 61.26 176.74 80
6 06/26/2025 22:51:55 0.37, 58.19 -0.31, 61.31 355.59 80
7 06/28/2025 22:31:35 -0.69, 63.17 -0.30, 61.31 210.72 80
8 06/29/2025 10:50:53 -0.29, 58.50 0.32, 61.26 314.79 80
9 07/01/2025 10:30:33 0.80, 63.48 0.31, 61.26 251.99 80
10 07/01/2025 22:49:42 0.20, 58.85 -0.33, 61.31 280.01 80
11 07/03/2025 22:29:21 -0.85, 63.84 -0.33, 61.32 286.35 80
12 07/04/2025 10:48:38 -0.11, 59.17 0.34, 61.27 239.40 80
